,,Stat5,,Stat1,,Stat2,,Stat3,,Stat4,,Wind1,,Wind1,
time,status,PA1M_AVG,status,PR1M_SUM,status,RH1M_AVG,status,SR1M_AVG,status,TA1M_AVG,status,W1dAve1m,status,W1sAve1m,
2001-09-29, 00:00:00,VALID,918.848,VALID,0,VALID,99.1801,VALID,-0.0339617,VALID,18.7578,VALID,342,VALID,0.711143,
2001-09-29, 00:01:00,VALID,918.819,VALID,0,VALID,99.161,VALID,0,VALID,18.7386,VALID,2,VALID,0.88598,
2001-09-29, 00:02:00,VALID,918.785,VALID,0,VALID,99.1496,VALID,0,VALID,18.7061,VALID,14,VALID,0.758042,
2001-09-29, 00:03:00,VALID,918.753,VALID,0,VALID,99.1483,VALID,-0.0339617,VALID,18.69,VALID,344,VALID,0.551282,
2001-09-29, 00:04:00,VALID,918.739,VALID,0.2,VALID,99.1394,VALID,-0.0509425,VALID,18.6604,VALID,345,VALID,0.723958,
2001-09-29, 00:05:00,VALID,918.72,VALID,0,VALID,99.1292,VALID,-0.0169808,VALID,18.6219,VALID,343,VALID,0.574554,
2001-09-29, 00:06:00,VALID,918.692,VALID,0,VALID,99.1228,VALID,-0.0169808,VALID,18.5988,VALID,10,VALID,0.913411,
2001-09-29, 00:07:00,VALID,918.673,VALID,0,VALID,99.119,VALID,-0.0509425,VALID,18.5993,VALID,307,VALID,0.724609,
2001-09-29, 00:08:00,VALID,918.655,VALID,0,VALID,99.1356,VALID,-0.0679233,VALID,18.603,VALID,317,VALID,0.546205,
2001-09-29, 00:09:00,VALID,918.655,VALID,0,VALID,99.1343,VALID,0,VALID,18.5898,VALID,348,VALID,0.380425,
2001-09-29, 00:10:00,VALID,918.636,VALID,0,VALID,99.1572,VALID,0.0169808,VALID,18.5896,VALID,328,VALID,0.462457,
2001-09-29, 00:11:00,VALID,918.613,VALID,0,VALID,99.1623,VALID,-0.0339617,VALID,18.5995,VALID,357,VALID,0.317785,
2001-09-29, 00:12:00,VALID,918.602,VALID,0.2,VALID,99.1852,VALID,-0.0339617,VALID,18.6191,VALID,2,VALID,0.574219,
2001-09-29, 00:13:00,VALID,918.584,VALID,0,VALID,99.1648,VALID,-0.0169808,VALID,18.5958,VALID,6,VALID,0.527455,
2001-09-29, 00:14:00,VALID,918.563,VALID,0,VALID,99.1635,VALID,-0.0679233,VALID,18.6028,VALID,14,VALID,0.436581,
2001-09-29, 00:15:00,VALID,918.549,VALID,0,VALID,99.1737,VALID,-0.0169808,VALID,18.612,VALID,13,VALID,0.275288,
2001-09-29, 00:16:00,VALID,918.536,VALID,0,VALID,99.1839,VALID,-0.0169808,VALID,18.6157,VALID,5,VALID,0.188133,
2001-09-29, 00:17:00,VALID,918.52,VALID,0,VALID,99.1928,VALID,-0.0339617,VALID,18.6221,VALID,4,VALID,0.559082,
2001-09-29, 00:18:00,VALID,918.509,VALID,0,VALID,99.1953,VALID,0,VALID,18.6251,VALID,12,VALID,0.508464,
2001-09-29, 00:19:00,VALID,918.492,VALID,0,VALID,99.1953,VALID,-0.0509425,VALID,18.6318,VALID,13,VALID,0.525825,
2001-09-29, 00:20:00,VALID,918.456,VALID,0,VALID,99.2017,VALID,-0.0169808,VALID,18.6413,VALID,13,VALID,0.734848,
2001-09-29, 00:21:00,VALID,918.428,VALID,0,VALID,99.2055,VALID,-0.0339617,VALID,18.6348,VALID,12,VALID,0.349301,
2001-09-29, 00:22:00,VALID,918.41,VALID,0.2,VALID,99.2055,VALID,-0.0509425,VALID,18.6482,VALID,6,VALID,0.239509,
2001-09-29, 00:23:00,VALID,918.398,VALID,0,VALID,99.2131,VALID,0,VALID,18.6344,VALID,359,VALID,0.0533088,
2001-09-29, 00:24:00,VALID,918.355,VALID,0,VALID,99.1991,VALID,-0.0169808,VALID,18.6226,VALID,358,VALID,0,
2001-09-29, 00:25:00,VALID,918.331,VALID,0,VALID,99.189,VALID,-0.0339617,VALID,18.606,VALID,358,VALID,0,
2001-09-29, 00:26:00,VALID,918.316,VALID,0,VALID,99.1839,VALID,0,VALID,18.5898,VALID,358,VALID,0,
2001-09-29, 00:27:00,VALID,918.283,VALID,0,VALID,99.1724,VALID,-0.0169808,VALID,18.5635,VALID,358,VALID,0,
2001-09-29, 00:28:00,VALID,918.259,VALID,0,VALID,99.1864,VALID,0,VALID,18.5511,VALID,351,VALID,0.0501302,
2001-09-29, 00:29:00,VALID,918.236,VALID,0,VALID,99.1699,VALID,-0.0679233,VALID,18.525,VALID,351,VALID,0.0170455,
2001-09-29, 00:30:00,VALID,918.213,VALID,0.2,VALID,99.1763,VALID,-0.0509425,VALID,18.5257,VALID,344,VALID,0.105674,
2001-09-29, 00:31:00,VALID,918.191,VALID,0,VALID,99.189,VALID,-0.0339617,VALID,18.5029,VALID,336,VALID,0.0129464,
2001-09-29, 00:32:00,VALID,918.165,VALID,0,VALID,99.1902,VALID,0.0679233,VALID,18.492,VALID,335,VALID,0,
2001-09-29, 00:33:00,VALID,918.144,VALID,0,VALID,99.1801,VALID,0.0509425,VALID,18.469,VALID,298,VALID,0,
2001-09-29, 00:34:00,VALID,918.128,VALID,0,VALID,99.1864,VALID,0.101885,VALID,18.469,VALID,298,VALID,0,
2001-09-29, 00:35:00,VALID,918.105,VALID,0,VALID,99.1966,VALID,0.0849042,VALID,18.4623,VALID,298,VALID,0,
2001-09-29, 00:36:00,VALID,918.088,VALID,0,VALID,99.1928,VALID,0.0849042,VALID,18.4558,VALID,298,VALID,0,
2001-09-29, 00:37:00,VALID,918.058,VALID,0,VALID,99.2068,VALID,0.0849042,VALID,18.4734,VALID,298,VALID,0,
2001-09-29, 00:38:00,VALID,918.033,VALID,0,VALID,99.2106,VALID,0.0849042,VALID,18.4595,VALID,298,VALID,0,
2001-09-29, 00:39:00,VALID,918.005,VALID,0,VALID,99.2195,VALID,0.0339617,VALID,18.456,VALID,309,VALID,0,
2001-09-29, 00:40:00,VALID,917.979,VALID,0,VALID,99.2246,VALID,0.0679233,VALID,18.4791,VALID,330,VALID,0,
2001-09-29, 00:41:00,VALID,917.95,VALID,0,VALID,99.2233,VALID,0.0679233,VALID,18.4627,VALID,330,VALID,0,
2001-09-29, 00:42:00,VALID,917.921,VALID,0,VALID,99.2284,VALID,0.0509425,VALID,18.4761,VALID,330,VALID,0,
2001-09-29, 00:43:00,VALID,917.886,VALID,0,VALID,99.2233,VALID,0.0849042,VALID,18.4662,VALID,330,VALID,0,
2001-09-29, 00:44:00,VALID,917.866,VALID,0,VALID,99.2335,VALID,0.0339617,VALID,18.4789,VALID,330,VALID,0,
2001-09-29, 00:45:00,VALID,917.849,VALID,0,VALID,99.236,VALID,0.0849042,VALID,18.4787,VALID,330,VALID,0,
2001-09-29, 00:46:00,VALID,917.82,VALID,0,VALID,99.2258,VALID,0.0679233,VALID,18.492,VALID,330,VALID,0,
2001-09-29, 00:47:00,VALID,917.805,VALID,0,VALID,99.2271,VALID,0,VALID,18.487,VALID,330,VALID,0,
2001-09-29, 00:48:00,VALID,917.788,VALID,0.2,VALID,99.2055,VALID,-0.0339617,VALID,18.4741,VALID,330,VALID,0,
2001-09-29, 00:49:00,VALID,917.775,VALID,0,VALID,99.2309,VALID,-0.0339617,VALID,18.4743,VALID,345,VALID,0,
2001-09-29, 00:50:00,VALID,917.771,VALID,0,VALID,99.236,VALID,-0.0509425,VALID,18.4874,VALID,124,VALID,0.327895,
2001-09-29, 00:51:00,VALID,917.76,VALID,0,VALID,99.1966,VALID,-0.0169808,VALID,18.4741,VALID,133,VALID,0.429688,
2001-09-29, 00:52:00,VALID,917.743,VALID,0,VALID,99.1928,VALID,-0.0339617,VALID,18.4482,VALID,134,VALID,0.40984,
2001-09-29, 00:53:00,VALID,917.742,VALID,0,VALID,99.1915,VALID,-0.0169808,VALID,18.4288,VALID,130,VALID,0.603027,
2001-09-29, 00:54:00,VALID,917.733,VALID,0,VALID,99.1902,VALID,-0.0169808,VALID,18.4129,VALID,131,VALID,0.640842,
2001-09-29, 00:55:00,VALID,917.732,VALID,0,VALID,99.2055,VALID,-0.0169808,VALID,18.4028,VALID,140,VALID,0.747396,
2001-09-29, 00:56:00,VALID,917.725,VALID,0,VALID,99.222,VALID,0,VALID,18.4092,VALID,144,VALID,0.796165,
2001-09-29, 00:57:00,VALID,917.719,VALID,0,VALID,99.2398,VALID,0,VALID,18.4187,VALID,142,VALID,0.794819,
2001-09-29, 00:58:00,VALID,917.717,VALID,0,VALID,99.25,VALID,-0.0169808,VALID,18.4355,VALID,142,VALID,1.00045,
2001-09-29, 00:59:00,VALID,917.713,VALID,0,VALID,99.2615,VALID,-0.0339617,VALID,18.4519,VALID,141,VALID,0.95818,
2001-09-29, 01:00:00,VALID,917.709,VALID,0,VALID,99.2653,VALID,-0.0339617,VALID,18.4515,VALID,146,VALID,0.97065,
2001-09-29, 01:01:00,VALID,917.699,VALID,0,VALID,99.2615,VALID,0,VALID,18.4574,VALID,129,VALID,0.730997,
2001-09-29, 01:02:00,VALID,917.693,VALID,0.2,VALID,99.2716,VALID,-0.0169808,VALID,18.4478,VALID,132,VALID,0.575684,
2001-09-29, 01:03:00,VALID,917.697,VALID,0,VALID,99.2691,VALID,-0.0169808,VALID,18.4614,VALID,127,VALID,0.398438,
2001-09-29, 01:04:00,VALID,917.696,VALID,0,VALID,99.2767,VALID,-0.0169808,VALID,18.4574,VALID,125,VALID,0.43099,
2001-09-29, 01:05:00,VALID,917.703,VALID,0,VALID,99.2894,VALID,-0.0169808,VALID,18.4611,VALID,137,VALID,0.691761,
2001-09-29, 01:06:00,VALID,917.698,VALID,0,VALID,99.2894,VALID,0,VALID,18.4644,VALID,145,VALID,0.872533,
2001-09-29, 01:07:00,VALID,917.678,VALID,0,VALID,99.2869,VALID,-0.0169808,VALID,18.4676,VALID,144,VALID,0.497321,
2001-09-29, 01:08:00,VALID,917.663,VALID,0,VALID,99.2856,VALID,0,VALID,18.4741,VALID,151,VALID,0.528493,
2001-09-29, 01:09:00,VALID,917.666,VALID,0,VALID,99.2971,VALID,0,VALID,18.4641,VALID,132,VALID,0.53125,
2001-09-29, 01:10:00,VALID,917.637,VALID,0,VALID,99.2882,VALID,0.0169808,VALID,18.4708,VALID,136,VALID,0.388091,
2001-09-29, 01:11:00,VALID,917.616,VALID,0,VALID,99.2882,VALID,0,VALID,18.4773,VALID,118,VALID,0.456787,
2001-09-29, 01:12:00,VALID,917.606,VALID,0.2,VALID,99.2818,VALID,-0.0169808,VALID,18.4574,VALID,131,VALID,0.596354,
2001-09-29, 01:13:00,VALID,917.58,VALID,0,VALID,99.2805,VALID,-0.0169808,VALID,18.4676,VALID,89,VALID,0.611762,
2001-09-29, 01:14:00,VALID,917.566,VALID,0,VALID,99.3047,VALID,-0.0169808,VALID,18.4607,VALID,125,VALID,0.537642,
2001-09-29, 01:15:00,VALID,917.534,VALID,0,VALID,99.3009,VALID,0,VALID,18.4641,VALID,155,VALID,0.449013,
2001-09-29, 01:16:00,VALID,917.516,VALID,0,VALID,99.2983,VALID,0,VALID,18.4607,VALID,148,VALID,0.775893,
2001-09-29, 01:17:00,VALID,917.48,VALID,0,VALID,99.2894,VALID,0,VALID,18.4478,VALID,149,VALID,0.759651,
2001-09-29, 01:18:00,VALID,917.46,VALID,0,VALID,99.2907,VALID,-0.0169808,VALID,18.4544,VALID,157,VALID,1.26541,
2001-09-29, 01:19:00,VALID,917.442,VALID,0,VALID,99.2996,VALID,-0.0169808,VALID,18.448,VALID,154,VALID,1.63429,
2001-09-29, 01:20:00,VALID,917.419,VALID,0,VALID,99.2882,VALID,-0.0169808,VALID,18.4448,VALID,147,VALID,1.60571,
2001-09-29, 01:21:00,VALID,917.405,VALID,0,VALID,99.2971,VALID,0,VALID,18.4418,VALID,176,VALID,1.375,
2001-09-29, 01:22:00,VALID,917.399,VALID,0,VALID,99.311,VALID,-0.0169808,VALID,18.4418,VALID,158,VALID,1.39084,
2001-09-29, 01:23:00,VALID,917.375,VALID,0,VALID,99.311,VALID,-0.0339617,VALID,18.4452,VALID,161,VALID,0.860322,
2001-09-29, 01:24:00,VALID,917.369,VALID,0,VALID,99.3136,VALID,-0.0169808,VALID,18.4418,VALID,147,VALID,1.00699,
2001-09-29, 01:25:00,VALID,917.37,VALID,0,VALID,99.3123,VALID,-0.0339617,VALID,18.4519,VALID,171,VALID,0.922768,
2001-09-29, 01:26:00,VALID,917.366,VALID,0,VALID,99.3174,VALID,0,VALID,18.4411,VALID,172,VALID,0.737822,
2001-09-29, 01:27:00,VALID,917.352,VALID,0,VALID,99.3199,VALID,0,VALID,18.4418,VALID,176,VALID,0.727829,
2001-09-29, 01:28:00,VALID,917.36,VALID,0,VALID,99.3136,VALID,0,VALID,18.4549,VALID,168,VALID,0.69489,
2001-09-29, 01:29:00,VALID,917.353,VALID,0,VALID,99.3174,VALID,0,VALID,18.4316,VALID,174,VALID,0.637207,
2001-09-29, 01:30:00,VALID,917.339,VALID,0,VALID,99.3199,VALID,0,VALID,18.4418,VALID,212,VALID,0.180122,
2001-09-29, 01:31:00,VALID,917.334,VALID,0,VALID,99.3161,VALID,-0.0169808,VALID,18.4383,VALID,184,VALID,0.601563,
2001-09-29, 01:32:00,VALID,917.324,VALID,0,VALID,99.3288,VALID,-0.0169808,VALID,18.4482,VALID,159,VALID,0.211411,
2001-09-29, 01:33:00,VALID,917.324,VALID,0.2,VALID,99.3327,VALID,0,VALID,18.4512,VALID,200,VALID,0.0265214,
2001-09-29, 01:34:00,VALID,917.309,VALID,0,VALID,99.3301,VALID,0,VALID,18.4676,VALID,212,VALID,0.0859375,
2001-09-29, 01:35:00,VALID,917.309,VALID,0,VALID,99.3403,VALID,-0.0169808,VALID,18.4708,VALID,172,VALID,0.134421,
2001-09-29, 01:36:00,VALID,917.313,VALID,0,VALID,99.3314,VALID,0,VALID,18.4607,VALID,151,VALID,0.295608,
2001-09-29, 01:37:00,VALID,917.309,VALID,0,VALID,99.3377,VALID,-0.0169808,VALID,18.4609,VALID,144,VALID,0.219172,
2001-09-29, 01:38:00,VALID,917.3,VALID,0,VALID,99.3263,VALID,-0.0169808,VALID,18.4646,VALID,143,VALID,0.000976563,
2001-09-29, 01:39:00,VALID,917.286,VALID,0,VALID,99.3327,VALID,-0.0169808,VALID,18.4478,VALID,142,VALID,0.0857205,
2001-09-29, 01:40:00,VALID,917.289,VALID,0,VALID,99.3339,VALID,-0.0339617,VALID,18.4517,VALID,141,VALID,0.178168,
2001-09-29, 01:41:00,VALID,917.278,VALID,0,VALID,99.3238,VALID,-0.0169808,VALID,18.4549,VALID,126,VALID,0.0553977,
2001-09-29, 01:42:00,VALID,917.284,VALID,0,VALID,99.3301,VALID,-0.0169808,VALID,18.4445,VALID,69,VALID,0.00616776,
2001-09-29, 01:43:00,VALID,917.29,VALID,0,VALID,99.3365,VALID,-0.0509425,VALID,18.4713,VALID,69,VALID,0,
2001-09-29, 01:44:00,VALID,917.296,VALID,0,VALID,99.3377,VALID,-0.0169808,VALID,18.4508,VALID,69,VALID,0,
2001-09-29, 01:45:00,VALID,917.287,VALID,0,VALID,99.3339,VALID,-0.0169808,VALID,18.4644,VALID,69,VALID,0,
2001-09-29, 01:46:00,VALID,917.308,VALID,0,VALID,99.3339,VALID,0,VALID,18.4743,VALID,69,VALID,0,
2001-09-29, 01:47:00,VALID,917.301,VALID,0,VALID,99.3314,VALID,0,VALID,18.4745,VALID,69,VALID,0,
2001-09-29, 01:48:00,VALID,917.322,VALID,0,VALID,99.3365,VALID,-0.0339617,VALID,18.4867,VALID,69,VALID,0,
2001-09-29, 01:49:00,VALID,917.329,VALID,0,VALID,99.3009,VALID,0,VALID,18.4644,VALID,69,VALID,0,
2001-09-29, 01:50:00,VALID,917.338,VALID,0.2,VALID,99.2958,VALID,0,VALID,18.4418,VALID,76,VALID,0.265388,
2001-09-29, 01:51:00,VALID,917.331,VALID,0,VALID,99.3034,VALID,0,VALID,18.439,VALID,88,VALID,0.487253,
2001-09-29, 01:52:00,VALID,917.331,VALID,0,VALID,99.3149,VALID,-0.0509425,VALID,18.4418,VALID,30,VALID,0.954687,
2001-09-29, 01:53:00,VALID,917.33,VALID,0,VALID,99.3149,VALID,-0.0169808,VALID,18.4452,VALID,36,VALID,0.71898,
2001-09-29, 01:54:00,VALID,917.329,VALID,0,VALID,99.3161,VALID,-0.0169808,VALID,18.4291,VALID,27,VALID,0.676309,
2001-09-29, 01:55:00,VALID,917.322,VALID,0,VALID,99.3352,VALID,-0.0509425,VALID,18.4258,VALID,16,VALID,0.829181,
2001-09-29, 01:56:00,VALID,917.325,VALID,0,VALID,99.3365,VALID,-0.0169808,VALID,18.4318,VALID,18,VALID,0.634766,
2001-09-29, 01:57:00,VALID,917.322,VALID,0,VALID,99.3416,VALID,-0.0339617,VALID,18.4549,VALID,12,VALID,0.678602,
2001-09-29, 01:58:00,VALID,917.314,VALID,0,VALID,99.3441,VALID,-0.0509425,VALID,18.4678,VALID,12,VALID,0.672309,
2001-09-29, 01:59:00,VALID,917.304,VALID,0,VALID,99.3581,VALID,-0.0339617,VALID,18.478,VALID,8,VALID,0.703835,
2001-09-29, 02:00:00,VALID,917.291,VALID,0,VALID,99.3543,VALID,-0.0169808,VALID,18.484,VALID,6,VALID,0.607525,
2001-09-29, 02:01:00,VALID,917.286,VALID,0.2,VALID,99.3695,VALID,-0.0679233,VALID,18.4902,VALID,5,VALID,0.610045,
2001-09-29, 02:02:00,VALID,917.274,VALID,0,VALID,99.3657,VALID,-0.0339617,VALID,18.4932,VALID,10,VALID,0.586627,
2001-09-29, 02:03:00,VALID,917.273,VALID,0,VALID,99.3721,VALID,-0.0509425,VALID,18.5093,VALID,360,VALID,0.449324,
2001-09-29, 02:04:00,VALID,917.288,VALID,0,VALID,99.3619,VALID,-0.0339617,VALID,18.5165,VALID,342,VALID,0.326647,
2001-09-29, 02:05:00,VALID,917.27,VALID,0,VALID,99.3708,VALID,-0.0169808,VALID,18.5133,VALID,348,VALID,0.329834,
2001-09-29, 02:06:00,VALID,917.274,VALID,0,VALID,99.3708,VALID,0,VALID,18.5093,VALID,360,VALID,0.330946,
2001-09-29, 02:07:00,VALID,917.27,VALID,0,VALID,99.3695,VALID,-0.0169808,VALID,18.5267,VALID,358,VALID,0.505425,
2001-09-29, 02:08:00,VALID,917.27,VALID,0,VALID,99.3708,VALID,-0.0169808,VALID,18.523,VALID,341,VALID,0.475616,
2001-09-29, 02:09:00,VALID,917.265,VALID,0,VALID,99.3695,VALID,0,VALID,18.5126,VALID,329,VALID,0.140831,
2001-09-29, 02:10:00,VALID,917.255,VALID,0.2,VALID,99.3797,VALID,0,VALID,18.5257,VALID,337,VALID,0.335268,
2001-09-29, 02:11:00,VALID,917.238,VALID,0,VALID,99.3657,VALID,0,VALID,18.5158,VALID,2,VALID,0.329504,
2001-09-29, 02:12:00,VALID,917.234,VALID,0,VALID,99.3708,VALID,0,VALID,18.5283,VALID,12,VALID,0.23163,
2001-09-29, 02:13:00,VALID,917.228,VALID,0,VALID,99.3772,VALID,0,VALID,18.5679,VALID,11,VALID,0.0380068,
2001-09-29, 02:14:00,VALID,917.237,VALID,0,VALID,99.3797,VALID,-0.0339617,VALID,18.5578,VALID,6,VALID,0.564941,
2001-09-29, 02:15:00,VALID,917.224,VALID,0,VALID,99.3759,VALID,-0.0339617,VALID,18.5578,VALID,10,VALID,0.436849,
2001-09-29, 02:16:00,VALID,917.209,VALID,0,VALID,99.3861,VALID,-0.0509425,VALID,18.5719,VALID,6,VALID,0.631944,
2001-09-29, 02:17:00,VALID,917.209,VALID,0,VALID,99.3683,VALID,-0.0339617,VALID,18.5615,VALID,12,VALID,0.6991,
2001-09-29, 02:18:00,VALID,917.196,VALID,0,VALID,99.3644,VALID,-0.0169808,VALID,18.555,VALID,2,VALID,0.768709,
2001-09-29, 02:19:00,VALID,917.169,VALID,0,VALID,99.3594,VALID,-0.0169808,VALID,18.5255,VALID,360,VALID,0.81875,
2001-09-29, 02:20:00,VALID,917.153,VALID,0,VALID,99.367,VALID,-0.0339617,VALID,18.5292,VALID,11,VALID,0.751608,
2001-09-29, 02:21:00,VALID,917.117,VALID,0,VALID,99.3556,VALID,-0.0339617,VALID,18.5059,VALID,11,VALID,1.00148,
2001-09-29, 02:22:00,VALID,917.097,VALID,0,VALID,99.3606,VALID,0,VALID,18.493,VALID,24,VALID,0.734797,
2001-09-29, 02:23:00,VALID,917.081,VALID,0,VALID,99.3708,VALID,-0.0339617,VALID,18.5098,VALID,13,VALID,0.784668,
2001-09-29, 02:24:00,VALID,917.06,VALID,0,VALID,99.3708,VALID,-0.0169808,VALID,18.5029,VALID,17,VALID,0.399523,
2001-09-29, 02:25:00,VALID,917.039,VALID,0,VALID,99.3683,VALID,-0.0169808,VALID,18.4837,VALID,9,VALID,0.345052,
2001-09-29, 02:26:00,VALID,917.011,VALID,0,VALID,99.3683,VALID,-0.0169808,VALID,18.4867,VALID,7,VALID,0.459517,
2001-09-29, 02:27:00,VALID,916.991,VALID,0,VALID,99.3797,VALID,-0.0169808,VALID,18.4867,VALID,6,VALID,0.268298,
2001-09-29, 02:28:00,VALID,916.979,VALID,0,VALID,99.3721,VALID,-0.0679233,VALID,18.4837,VALID,4,VALID,0.774107,
2001-09-29, 02:29:00,VALID,916.967,VALID,0,VALID,99.3708,VALID,-0.0169808,VALID,18.4644,VALID,3,VALID,0.564108,
2001-09-29, 02:30:00,VALID,916.946,VALID,0,VALID,99.3835,VALID,-0.0169808,VALID,18.4641,VALID,8,VALID,0.213682,
2001-09-29, 02:31:00,VALID,916.913,VALID,0,VALID,99.3886,VALID,0,VALID,18.481,VALID,4,VALID,0.439189,
2001-09-29, 02:32:00,VALID,916.897,VALID,0,VALID,99.395,VALID,0,VALID,18.4641,VALID,351,VALID,0.413086,
2001-09-29, 02:33:00,VALID,916.891,VALID,0.2,VALID,99.3962,VALID,-0.0339617,VALID,18.4579,VALID,358,VALID,0.282335,
2001-09-29, 02:34:00,VALID,916.876,VALID,0,VALID,99.3861,VALID,-0.0339617,VALID,18.4577,VALID,19,VALID,0.540799,
2001-09-29, 02:35:00,VALID,916.879,VALID,0,VALID,99.395,VALID,0,VALID,18.4607,VALID,16,VALID,0.449574,
2001-09-29, 02:36:00,VALID,916.87,VALID,0,VALID,99.3937,VALID,0,VALID,18.4611,VALID,12,VALID,0.46875,
2001-09-29, 02:37:00,VALID,916.864,VALID,0,VALID,99.4001,VALID,0,VALID,18.4478,VALID,7,VALID,0.253125,
2001-09-29, 02:38:00,VALID,916.866,VALID,0,VALID,99.4013,VALID,0,VALID,18.4581,VALID,6,VALID,0.275965,
2001-09-29, 02:39:00,VALID,916.864,VALID,0,VALID,99.4039,VALID,0,VALID,18.448,VALID,6,VALID,0,
2001-09-29, 02:40:00,VALID,916.891,VALID,0,VALID,99.4013,VALID,0,VALID,18.445,VALID,33,VALID,0.0282939,
2001-09-29, 02:41:00,VALID,916.885,VALID,0,VALID,99.3873,VALID,0,VALID,18.4281,VALID,78,VALID,0.479736,
2001-09-29, 02:42:00,VALID,916.892,VALID,0,VALID,99.3924,VALID,-0.0169808,VALID,18.4157,VALID,87,VALID,0.626736,
2001-09-29, 02:43:00,VALID,916.906,VALID,0,VALID,99.3797,VALID,-0.0169808,VALID,18.3931,VALID,94,VALID,0.657552,
2001-09-29, 02:44:00,VALID,916.9,VALID,0,VALID,99.3848,VALID,-0.0169808,VALID,18.3836,VALID,101,VALID,0.611742,
2001-09-29, 02:45:00,VALID,916.904,VALID,0,VALID,99.3924,VALID,0,VALID,18.3772,VALID,105,VALID,0.885896,
2001-09-29, 02:46:00,VALID,916.886,VALID,0,VALID,99.4039,VALID,0,VALID,18.3737,VALID,122,VALID,0.381473,
2001-09-29, 02:47:00,VALID,916.878,VALID,0,VALID,99.4191,VALID,0,VALID,18.3767,VALID,117,VALID,0.538143,
2001-09-29, 02:48:00,VALID,916.851,VALID,0,VALID,99.409,VALID,0,VALID,18.3703,VALID,102,VALID,0.31989,
2001-09-29, 02:49:00,VALID,916.837,VALID,0,VALID,99.4153,VALID,0,VALID,18.3772,VALID,102,VALID,0.0382179,
2001-09-29, 02:50:00,VALID,916.812,VALID,0,VALID,99.4064,VALID,0,VALID,18.364,VALID,106,VALID,0.527588,
2001-09-29, 02:51:00,VALID,916.785,VALID,0,VALID,99.4102,VALID,0,VALID,18.3543,VALID,104,VALID,0.738932,
2001-09-29, 02:52:00,VALID,916.76,VALID,0,VALID,99.4242,VALID,0,VALID,18.3476,VALID,93,VALID,0.665148,
2001-09-29, 02:53:00,VALID,916.744,VALID,0,VALID,99.4166,VALID,0.0169808,VALID,18.3447,VALID,96,VALID,0.386489,
2001-09-29, 02:54:00,VALID,916.727,VALID,0,VALID,99.4191,VALID,-0.0169808,VALID,18.3384,VALID,95,VALID,0.56764,
2001-09-29, 02:55:00,VALID,916.706,VALID,0,VALID,99.4191,VALID,-0.0169808,VALID,18.3253,VALID,104,VALID,0.945536,
2001-09-29, 02:56:00,VALID,916.692,VALID,0,VALID,99.4128,VALID,0,VALID,18.3195,VALID,104,VALID,1.00758,
2001-09-29, 02:57:00,VALID,916.675,VALID,0,VALID,99.4229,VALID,0,VALID,18.3064,VALID,96,VALID,0.699324,
2001-09-29, 02:58:00,VALID,916.665,VALID,0,VALID,99.4293,VALID,0,VALID,18.3128,VALID,104,VALID,0.633868,
2001-09-29, 02:59:00,VALID,916.652,VALID,0,VALID,99.4293,VALID,0,VALID,18.3163,VALID,101,VALID,0.95874,
2001-09-29, 03:00:00,VALID,916.634,VALID,0,VALID,99.428,VALID,0,VALID,18.3061,VALID,91,VALID,0.768663,
2001-09-29, 03:01:00,VALID,916.634,VALID,0,VALID,99.442,VALID,-0.0169808,VALID,18.2925,VALID,61,VALID,0.676432,
2001-09-29, 03:02:00,VALID,916.623,VALID,0,VALID,99.4458,VALID,-0.0169808,VALID,18.3126,VALID,72,VALID,0.501657,
2001-09-29, 03:03:00,VALID,916.63,VALID,0,VALID,99.4395,VALID,0,VALID,18.3154,VALID,79,VALID,0.640625,
2001-09-29, 03:04:00,VALID,916.615,VALID,0,VALID,99.4382,VALID,0,VALID,18.3061,VALID,75,VALID,0.456473,
2001-09-29, 03:05:00,VALID,916.58,VALID,0,VALID,99.4382,VALID,0,VALID,18.3064,VALID,73,VALID,0.321691,
2001-09-29, 03:06:00,VALID,916.57,VALID,0,VALID,99.4433,VALID,0,VALID,18.3061,VALID,81,VALID,0.470439,
2001-09-29, 03:07:00,VALID,916.556,VALID,0,VALID,99.4446,VALID,-0.0169808,VALID,18.2958,VALID,98,VALID,0.51098,
2001-09-29, 03:08:00,VALID,916.542,VALID,0,VALID,99.4395,VALID,0,VALID,18.2863,VALID,101,VALID,0.459717,
2001-09-29, 03:09:00,VALID,916.531,VALID,0,VALID,99.4331,VALID,0,VALID,18.2801,VALID,101,VALID,0.349392,
2001-09-29, 03:10:00,VALID,916.527,VALID,0,VALID,99.4433,VALID,0,VALID,18.2741,VALID,101,VALID,0.0143229,
2001-09-29, 03:11:00,VALID,916.519,VALID,0,VALID,99.4458,VALID,0,VALID,18.2706,VALID,100,VALID,0.0991951,
2001-09-29, 03:12:00,VALID,916.517,VALID,0,VALID,99.4318,VALID,0.0169808,VALID,18.2409,VALID,89,VALID,0.245888,
2001-09-29, 03:13:00,VALID,916.508,VALID,0,VALID,99.4433,VALID,-0.0169808,VALID,18.2445,VALID,75,VALID,0.304688,
2001-09-29, 03:14:00,VALID,916.496,VALID,0,VALID,99.442,VALID,0,VALID,18.2545,VALID,97,VALID,0.487132,
2001-09-29, 03:15:00,VALID,916.49,VALID,0,VALID,99.4547,VALID,-0.0169808,VALID,18.2448,VALID,100,VALID,0.657517,
2001-09-29, 03:16:00,VALID,916.485,VALID,0,VALID,99.4547,VALID,0,VALID,18.2316,VALID,100,VALID,0.622044,
2001-09-29, 03:17:00,VALID,916.476,VALID,0,VALID,99.442,VALID,0,VALID,18.2351,VALID,102,VALID,0.606445,
2001-09-29, 03:18:00,VALID,916.479,VALID,0,VALID,99.4496,VALID,0,VALID,18.2353,VALID,106,VALID,0.411458,
2001-09-29, 03:19:00,VALID,916.484,VALID,0,VALID,99.4458,VALID,0,VALID,18.2418,VALID,107,VALID,0.375868,
2001-09-29, 03:20:00,VALID,916.483,VALID,0,VALID,99.4446,VALID,0,VALID,18.2353,VALID,107,VALID,0.255919,
2001-09-29, 03:21:00,VALID,916.485,VALID,0,VALID,99.456,VALID,0,VALID,18.2418,VALID,106,VALID,0.264803,
2001-09-29, 03:22:00,VALID,916.484,VALID,0,VALID,99.4509,VALID,-0.0169808,VALID,18.2452,VALID,105,VALID,0.0232143,
2001-09-29, 03:23:00,VALID,916.464,VALID,0,VALID,99.4471,VALID,-0.0339617,VALID,18.242,VALID,105,VALID,0,
2001-09-29, 03:24:00,VALID,916.453,VALID,0,VALID,99.4598,VALID,-0.0169808,VALID,18.2254,VALID,108,VALID,0,
2001-09-29, 03:25:00,VALID,916.439,VALID,0,VALID,99.4547,VALID,-0.0169808,VALID,18.2321,VALID,116,VALID,0,
2001-09-29, 03:26:00,VALID,916.428,VALID,0,VALID,99.456,VALID,-0.0169808,VALID,18.2289,VALID,111,VALID,0,
2001-09-29, 03:27:00,VALID,916.415,VALID,0,VALID,99.4547,VALID,-0.0339617,VALID,18.2418,VALID,112,VALID,0,
2001-09-29, 03:28:00,VALID,916.419,VALID,0,VALID,99.4598,VALID,-0.0509425,VALID,18.242,VALID,104,VALID,0,
2001-09-29, 03:29:00,VALID,916.421,VALID,0,VALID,99.4484,VALID,-0.0169808,VALID,18.2582,VALID,96,VALID,0,
2001-09-29, 03:30:00,VALID,916.429,VALID,0,VALID,99.442,VALID,-0.0169808,VALID,18.2355,VALID,96,VALID,0,
2001-09-29, 03:31:00,VALID,916.419,VALID,0,VALID,99.4446,VALID,-0.0169808,VALID,18.2157,VALID,101,VALID,0.48817,
2001-09-29, 03:32:00,VALID,916.427,VALID,0,VALID,99.4535,VALID,0.0169808,VALID,18.2192,VALID,99,VALID,0.728631,
2001-09-29, 03:33:00,VALID,916.417,VALID,0,VALID,99.4636,VALID,0,VALID,18.2125,VALID,103,VALID,0.703125,
2001-09-29, 03:34:00,VALID,916.424,VALID,0,VALID,99.4764,VALID,0,VALID,18.2125,VALID,105,VALID,0.814611,
2001-09-29, 03:35:00,VALID,916.428,VALID,0,VALID,99.4675,VALID,0.0169808,VALID,18.2321,VALID,112,VALID,0.706055,
2001-09-29, 03:36:00,VALID,916.437,VALID,0,VALID,99.4675,VALID,-0.0169808,VALID,18.2325,VALID,125,VALID,0.542969,